Flag for U.S.A. Weather past 2 weeks in Fremont, California, U.S.A.

Now
61 °F

Sunny.


Feels Like: 61 °F
Forecast: 48 / 75 °F
Wind: No wind

Location: Moffett Field

Current Time: Mar 29, 2015 at 11:11:47 AM

Latest Report: Mar 29, 2015 at 9:56 AM


Visibility: 10 mi

Pressure: 30.14 "Hg

Humidity: 67%

Dew point: 50 °F

Location of FremontLocation

Historic Weather in Fremont — Graph

°F

Fremont temperature yesterday

Maximum temperature yesterday: 78 °F (at 3:56 PM)
Minimum temperature yesterday: 51 °F (at 5:56 AM)
Average temperature yesterday: 62 °F

Past Weeks' High & Low Weather Summary

 TemperatureHumidityPressure
High82 °F (Mar 14, 2:56 PM)90% (Mar 23, 1:56 AM)30.33 "Hg (Mar 23, 1:56 AM)
Low48 °F (Mar 18, 4:56 AM)27% (Mar 19, 12:56 PM)29.97 "Hg (Mar 14, 6:56 PM)
Average61 °F65%30.13 "Hg
* Reported Mar 14 9:56 AM — Mar 29 9:56 AM, Fremont, Weather by CustomWeather, © 2015

Note: Actual official high and low records may vary slightly from our data, if they occured in-between our weather recording intervals... More about our weather records

Advertising

Fremont weather history for previous 24 hours

 ConditionsComfort  
Time TempWeatherWind HumidityBarometerVisibility
9:56 AM
Sun, Mar 29
61 °FSunny.No wind67%30.14 "Hg10 mi
8:56 AM58 °FSunny.No wind72%30.13 "Hg10 mi
7:56 AM51 °FClear.No wind86%30.13 "Hg10 mi
6:56 AM50 °FClear.No wind83%30.13 "Hg10 mi
5:56 AM51 °FClear.No wind80%30.13 "Hg10 mi
4:56 AM52 °FClear.No wind80%30.12 "Hg10 mi
3:56 AM51 °FClear.No wind86%30.12 "Hg10 mi
2:56 AM54 °FClear.3 mph83%30.12 "Hg10 mi
1:56 AM55 °FClear.No wind80%30.12 "Hg10 mi
12:56 AM55 °FClear.5 mph83%30.14 "Hg10 mi
11:56 PM
Sat, Mar 28
56 °FClear.3 mph77%30.14 "Hg10 mi
10:56 PM56 °FClear.5 mph77%30.13 "Hg10 mi
9:56 PM58 °FClear.3 mph72%30.12 "Hg10 mi
8:56 PM60 °FClear.6 mph69%30.11 "Hg10 mi
7:56 PM62 °FSunny.8 mph70%30.09 "Hg10 mi
6:56 PM66 °FSunny.12 mph59%30.08 "Hg10 mi
5:56 PM71 °FSunny.14 mph53%30.08 "Hg10 mi
4:56 PM76 °FSunny.10 mph36%30.08 "Hg10 mi
3:56 PM78 °FSunny.12 mph33%30.09 "Hg10 mi
2:56 PM75 °FSunny.14 mph37%30.11 "Hg10 mi
1:56 PM75 °FSunny.14 mph42%30.13 "Hg10 mi
12:56 PM73 °FSunny.5 mph37%30.16 "Hg10 mi
11:56 AM70 °FSunny.5 mph42%30.19 "Hg10 mi
Weather by CustomWeather, © 2015

See weather overviewHow to use our weather pages